sat.trackr.live / text

‹ back to catalog

STARLINK-5266

NORAD 55290 · 2023-010X

PAYLOAD ACTIVE UNKNOWN

§ Identity

Operator
Country
US
Launch date
2023-01-19
Launch site
AFWTR
Launch vehicle
Mass (kg)
RCS (m²)

Purposes: comms

External: N2YO · Heavens-Above · Gunter

§ Orbital elements

Epoch: 2026-09-20T22:21:30.987360Z

Period
96.11 min
Inclination
69.9980°
Eccentricity
0.0003711
Mean motion
14.98329235 rev/d
Perigee alt
569.5 km
Apogee alt
574.6 km
Semi-major
6,950.2 km
B*
5.4883e-5
RAAN
252.2144°
Arg perigee
269.1603°
Mean anomaly
90.9131°
Rev number
20,251

§ Raw data

STARLINK-52661 55290U 23010X   26263.93160865  .00000562  00000+0  54883-4 0  99982 55290  69.9980 252.2144 0003711 269.1603  90.9131 14.98329235202512

JSON: /api/v1/satellites/55290 · /tle

For live sub-satellite position, see the globe view (requires WebGL).

§ Visibility from observer

Set your observer location to see the next 7 days of passes ≥ 10°. The values pass through the URL so the page stays shareable.

No JS? Fill the form by hand. The geolocation button needs JavaScript.